User: anonymous   Login
Location: Nairn
(57.5833°N, 3.8667°W)
Time: 06:46:27
(UTC+00:00)
Language:

A-11 Canister half - Orbit

View from above orbital plane
View from above orbital plane
View from above satellite
View from above satellite

Ground track
Ground track

The orbit data is extracted from the following two-line orbital elements,

1    53U 60009E   20331.48476726 -.00000010 +00000-0 +72700-3 0  9997
2    53 047.2748 119.3086 0099185 198.9193 160.7897 12.17248615688302
Epoch (UTC): 26 November 2020 11:38:03
Eccentricity: 0.0099185
inclination: 47.2748°
perigee height: 1525 km
apogee height: 1684 km
right ascension of ascending node: 119.3086°
argument of perigee: 198.9193°
revolutions per day: 12.17248615
mean anomaly at epoch: 160.7897°
orbit number at epoch: 68830

The dashed part of the orbit path shows where the satellite is in the earth's shadow,  

DLR